Volver al catálogo

ARIANE 5 R/B

ActivoGTO
NORAD 41593·ROCKET BODY·🇫🇷 France

Lanzado Jun 18, 2016 desde Guiana Space Centre

Loading…

TLE

EnvejeciendoSource: Space-Track

Época: Sep 14, 2026, 10:50 UTC

1 41593U 16039C   26257.45198864  .00002879  00000-0  11608-2 0  9992
2 41593   6.0213 255.4456 7133192 107.1563 336.5182  2.45785355 87867

Sigue ARIANE 5 R/B en tiempo real con AllMySat

Download on the App Store